www.pogodaiklimat.ru

Погода и климат >> Архив погоды >> Украина >> Днепр


АРХИВ ПОГОДЫ в Днепре

Время (UTC), дата Ветер
(напр.,м/с)
 
Видим.   Явления Облачность Т
(С)
Тd
(С)
f
(%)
Тe
(С)
Тes
(С)
Комфортность P
(гПа)
Po
(гПа)
Тmin
(С)
Tmax
(С)
R
(мм)
R24
(мм)
S
(см)
03 12.09 СВ 4 10 км ясно +14.0 +8.2 68 +13 +13 по сезону 1027.7 1010.1
06 12.09 СВ 3 10 км 4/0
[Ac trans]
+20.0 +7.7 45 +21 +24 комфорт 1027.8 1010.6 +13.8
09 12.09 В 6 10 км 5/0
[Ac trans]
+26.8 +5.7 26 +26 +29 жарко 1026.9 1010.1
12 12.09 В 3 10 км 5/0
[Ac trans]
+28.3 +5.3 23 +27 +31 жарко 1025.6 1008.9
15 12.09 В 4 10 км 3/0
[Ac trans]
+23.8 +4.4 28 +23 +24 комфорт 1025.2 1008.2
18 12.09 В 4 10 км 3/0
[Ci fib]
+17.1 +4.1 42 +17 +17 тепло 1026.1 1008.7 +29.2
21 12.09 ЮВ 2 10 км 3/0
[Ci fib]
+18.9 +2.3 33 +20 +20 тепло 1025.8 1008.5
00 13.09 СВ 2 10 км 3/0
[Ci fib]
+14.9 +2.9 44 +15 +15 тепло 1025.6 1008.1
03 13.09 СВ 3 10 км 3/0
[Ci fib]
+13.1 +8.9 76 +12 +12 по сезону 1025.6 1008.0
06 13.09 В 2 10 км 3/0
[Ci fib]
+20.9 +5.9 38 +22 +26 комфорт 1025.9 1008.8 +12.9
09 13.09 СВ 3 10 км 4/0
[Ci fib]
+26.5 +4.2 24 +25 +33 комфорт 1024.7 1007.9
12 13.09 С 1 10 км 6/0
[Ci]
+26.7 +2.9 21 +25 +33 комфорт 1023.0 1006.2
15 13.09 штиль 0 10 км 6/0
[Ci]
+23.2 +3.7 28 +23 +23 комфорт 1021.9 1005.0
18 13.09 штиль 0 10 км ясно +18.3 +4.8 41 +18 +18 тепло 1022.4 1005.2 +27.9
21 13.09 З 2 10 км ясно +16.1 +5.5 49 +16 +16 тепло 1021.9 1004.6
00 14.09 З 2 10 км ясно +13.7 +5.1 56 +13 +13 тепло 1021.4 1003.9
03 14.09 З 1 10 км ясно +12.0 +3.4 56 +12 +12 по сезону 1020.8 1003.2
06 14.09 З 2 10 км 3/0
[Ci fib]
+18.6 +2.8 35 +19 +23 тепло 1020.1 1002.9 +11.5
09 14.09 С 4 10 км 8/0
[Ci]
+25.3 +8.4 34 +26 +31 жарко 1019.0 1002.2
12 14.09 СЗ 7 10 км 9/6 1500 м
[Cu hum Ac trans]
+24.9 +8.8 36 +25 +26 комфорт 1018.4 1001.6
15 14.09 СЗ 8 10 км 10/4 1000 м
[Cb calv Ac und]
+21.5 +10.8 51 +23 +23 комфорт 1018.5 1001.5
18 14.09 С 8 10 км 6/0
[Ac trans]
+17.9 +8.4 54 +17 +17 тепло 1020.7 1003.5 +27.0
21 14.09 С 4 10 км 3/0
[Ac trans]
+14.8 +4.2 49 +14 +14 по сезону 1022.2 1004.8
00 15.09 С 3 10 км ясно +11.4 +4.3 62 +10 +10 по сезону 1023.1 1005.4
03 15.09 С 3 10 км ясно +8.3 +3.4 71 +6 +6 холодно 1024.1 1006.2
06 15.09 С 3 10 км ясно +15.6 +4.2 47 +15 +18 тепло 1024.6 1007.2 +8.0
09 15.09 СЗ 5 10 км 3/3 1500 м
[Cu hum]
+20.0 +2.3 31 +20 +24 тепло 1023.9 1006.7
12 15.09 СЗ 5 10 км 3/1 1500 м
[Cu hum Ci fib]
+21.1 +2.9 30 +21 +24 комфорт 1022.4 1005.3
15 15.09 СЗ 3 10 км ясно +17.4 +4.0 41 +17 +18 по сезону 1021.3 1004.0
18 15.09 штиль 0 10 км ясно +13.9 +1.7 44 +14 +14 по сезону 1021.0 1003.5 +21.9
21 15.09 ЮВ 1 10 км ясно +11.4 +2.6 55 +12 +12 по сезону 1020.1 1002.5
00 16.09 ЮЗ 1 10 км ясно +10.0 +2.8 61 +10 +10 по сезону 1018.7 1001.0
03 16.09 ЮЗ 2 10 км ясно +9.1 +1.6 59 +8 +8 прохладно 1017.4 999.7
06 16.09 ЮЗ 4 10 км ясно +15.2 +3.7 46 +14 +17 по сезону 1015.8 998.5 +8.7
09 16.09 З 7 10 км ясно +23.3 +4.3 29 +23 +26 комфорт 1013.7 996.9
12 16.09 З 9 10 км 3/0
[Ci]
+26.4 +4.2 24 +25 +26 комфорт 1010.6 994.0
15 16.09 З 6 10 км 4/0
[Ci]
+24.8 +4.8 27 +24 +24 комфорт 1008.9 992.3
18 16.09 З 2 10 км ясно +17.1 +4.5 43 +17 +17 тепло 1009.6 992.5 +26.4
21 16.09 ЮЗ 2 10 км 4/0
[Ac trans]
+16.1 +6.8 54 +16 +16 тепло 1009.8 992.7
00 17.09 З 1 10 км 4/0
[Ac trans]
+14.9 +9.3 69 +15 +15 тепло 1009.1 991.9
03 17.09 З 1 10 км 8/0
[Ac trans]
+14.1 +9.0 71 +15 +15 тепло 1008.7 991.5
06 17.09 СЗ 1 10 км слаб. ливневой дождь 9/4 1000 м
[Cb cap Ac trans]
+15.2 +8.8 66 +16 +17 тепло 1009.5 992.3 +14.0 0.0
09 17.09 штиль 0 10 км слаб. ливневой дождь 9/5 930 м
[Cb cap Ac trans]
+13.2 +10.3 83 +13 +16 прохладно 1010.2 992.9
12 17.09 ЮЗ 2 10 км {ливн. осадки} 9/4 1000 м
[Cb calv As trans]
+15.2 +10.3 73 +15 +17 холодно 1008.9 991.7
15 17.09 З 3 10 км 3/0
[Ac trans]
+15.2 +8.8 66 +15 +15 по сезону 1008.2 991.0
18 17.09 ЮЗ 2 10 км ясно +11.2 +7.7 79 +10 +10 прохладно 1009.0 991.6 +16.8 1
21 17.09 ЮЗ 1 10 км ясно +9.3 +7.4 88 +9 +9 прохладно 1008.9 991.4
00 18.09 ЮЗ 2 10 км 9/0
[Ac trans]
+11.5 +7.4 76 +10 +10 по сезону 1007.8 990.4
03 18.09 ЮЗ 2 10 км 9/0
[Ac trans]
+12.1 +8.1 77 +11 +11 по сезону 1006.2 988.9
06 18.09 З 2 10 км слаб. ливневой дождь 10/10 1000 м
[Cb cap]
+12.1 +10.8 92 +11 +11 по сезону 1006.0 988.7 +9.3 2
09 18.09 ЮЗ 3 10 км {ливн. осадки} 8/4 1000 м
[Cb cap Ac trans]
+14.3 +11.7 84 +13 +16 прохладно 1005.7 988.6
12 18.09 З 9 10 км {ливн. осадки} 9/5 1230 м
[Sc Ac trans]
+15.6 +6.2 54 +14 +14 холодно 1006.2 989.1
15 18.09 З 7 10 км 3/3 1500 м
[Sc]
+14.1 +0.5 39 +12 +12 прохладно 1009.0 991.7
18 18.09 З 4 10 км ясно +10.1 +1.2 54 +8 +8 холодно 1012.0 994.4 +16.7 3
21 18.09 З 5 10 км ясно +8.4 +2.5 66 +5 +5 холодно 1013.8 996.1
00 19.09 З 4 10 км 3/0
[Ac trans]
+7.0 +3.7 79 +4 +4 холодно 1015.4 997.6

 

Местоположение метеостанции Днепр (Днепропетровская область, Украина): широта 48.60 долгота 34.97 высота над уровнем моря 143 м.

В архиве по умолчанию представлена погода в Днепре за последнюю неделю. Архивные данные за месяц целиком и за предыдущие месяцы, начиная с января 2011 года, Вы можете получить, выбрав интересующий диапазон дат из раскрывающегося списка и нажав кнопку "Ввод!".


*Определитесь, кто Вы:
робот инопланетянин человек

Внимание! Время в таблицах - всемирное. Для получения местного времени необходимо прибавить поправку, которая равна 2 ч.

Смотрите также архив погоды в соседних городах и на ближайших метеорологических станциях:

Погода в Губинихе (Днепропетровская область, Украина) (30 км)
Погода в Синельниково (Днепропетровская область, Украина) (45 км)
Погода в Павлограде (Днепропетровская область, Украина) (64 км)
Погода в Комиссаровке (Днепропетровская область, Украина) (81 км)
Погода в Кобеляках (Полтавская область, Украина) (83 км)
Погода в Лошкаревке (Днепропетровская область, Украина) (88 км)
Погода в Запорожье (Запорожская область, Украина) (89 км)
Погода в Краснограде (Харьковская область, Украина) (94 км)
Погода в Лозовой (Харьковская область, Украина) (104 км)
Погода в Чаплино (Днепропетровская область, Украина) (107 км)

Пояснения к столбцам:

Ветер - указаны скорость ветра в м/с - средняя за 10 мин, порывы в срок и между сроками (в фигурных скобках) и направление, откуда дует ветер: С - северный, СВ - северо-восточный, В - восточный, ЮВ - юго-восточный, Ю - южный, ЮЗ - юго-западный, З - западный, СЗ - северо-западный.
Видимость - горизонтальная дальность видимости в метрах или километрах. При видимости от 1 до 10 км при отсутствии осадков обычно наблюдается дымка, при ухудшении видимости до 1 км и менее - туман. В сухую погоду видимость может ухудшаться дымом, пылью или мглою.
Явления - указаны атмосферные явления, наблюдавшиеся в срок или в последний час перед сроком; фигурными скобками обозначены явления, наблюдавшиеся между сроками (за 1-3 часа до срока); квадратными скобками обозначены град или гололедные отложения с указанием их диаметра в мм.
Облачность - указаны через наклонную черту общая и нижняя облачность в баллах и высота нижней границы облаков в метрах; квадратными скобками обозначены формы облаков: Ci - перистые, Cs - перисто-слоистые, Cc - перисто-кучевые, Ac - высококучевые, As - высокослоистые, Sc - слоисто-кучевые, Ns - слоисто-дождевые, Cu - кучевые, Cb - кучево-дождевые. Подробнее классификацию облаков см. в Атласе облаков (PDF).
T - Температура воздуха - температура, измеренная на высоте 2 м над землей.
Td - Температура точки росы - температура, при понижении до которой содержащийся в воздухе водяной пар достигнет насыщения.
f - Относительная влажность воздуха - влажноcть воздуха, измеренная на высоте 2 м над землей.
Te - Эффективная температура - температура, которую ощущает одетый по сезону человек в тени. Характеристика душности погоды. При расчете учитывается влияние влажности воздуха и скорости ветра на теплоощущения человека.
Tes - Эффективная температура на солнце - температура, которую ощущает человек, с поправкой на солнечный нагрев. Характеристика знойности погоды. Зависит от высоты солнца над горизонтом, облачности и скорости ветра. Ночью, в пасмурную погоду, а также при ветре 12 м/с и более поправка равна нулю.
P - Атмосферное давление - приведенное к уровню моря атмосферное давление.
Po - Атмосферное давление - измеренное на уровне метеостанции атмосферное давление.
Tmin - Минимальная температура - минимум температуры воздуха на высоте 2 м над землей.
Tmax - Максимальная температура - максимум температуры воздуха на высоте 2 м над землей.
R - Количество осадков - Количество выпавших осадков за период времени, мм. При наведении курсора мыши на число - период времени, за который выпало указанное количество осадков.
R24 - Количество осадков - Количество выпавших осадков за 24 часа, мм.
S - Снежный покров - Высота снежного покрова, см. При наведении курсора мыши на число - состояние снежного покрова и степень покрытия местности в баллах.